This demonstration page uses our WeatherBlox Daily Observations layout. Learn more.

Left ArrowRight Arrow

39.29038, -76.61219

Hourly Observations for January 23, 2017

Temp ( °F °C ) Dew Point ( °F °C ) Humidity (%) Winds ( mph kmh ) Pressure ( in mb ) Visibility ( mi km ) Precip ( " mm )
12:54 am 00:54 undefined 49 9.4 45 7.2 86 86 undefined N/A 29.63 1003 N/A 0.00 0.00
1:54 am 01:54 undefined 48 8.9 44 6.7 86 86 undefined N/A 29.63 1003 N/A 0.00 0.00
2:54 am 02:54 undefined 47 8.3 43 6.1 86 86 undefined N/A 29.63 1003 N/A 0.00 0.00
3:54 am 03:54 undefined 47 8.3 42 5.6 83 83 undefined N/A 29.60 1002 N/A 0.00 0.00
4:54 am 04:54 undefined 47 8.3 42 5.6 83 83 undefined N/A 29.59 1002 N/A 0.00 0.00
5:54 am 05:54 undefined 46 7.8 41 5 83 83 undefined N/A 29.59 1002 N/A 0.00 0.00
6:54 am 06:54 undefined 46 7.8 41 5 83 83 undefined N/A 29.56 1001 N/A 0.00 0.00
7:54 am 07:54 undefined 46 7.8 40 4.4 79 79 undefined N/A 29.58 1002 N/A 0.00 0.00
8:54 am 08:54 undefined 45 7.2 40 4.4 83 83 undefined N/A 29.57 1002 N/A 0.00 0.00
9:54 am 09:54 undefined 44 6.7 38 3.3 79 79 undefined N/A 29.57 1001 N/A 0.01 0.25
10:54 am 10:54 undefined 43 6.1 37 2.8 80 80 undefined N/A 29.53 1000 N/A 0.00 0.00
11:54 am 11:54 undefined 42 5.6 37 2.8 82 82 undefined N/A 29.51 999 N/A 0.04 1.02
12:54 pm 12:54 undefined 42 5.6 36 2.2 79 79 undefined N/A 29.48 998 N/A 0.05 1.27
1:54 pm 13:54 undefined 41 5 36 2.2 82 82 undefined N/A 29.47 998 N/A 0.09 2.29
2:54 pm 14:54 undefined 41 5 38 3.3 89 89 undefined N/A 29.49 999 N/A 0.28 7.11
3:54 pm 15:54 undefined 42 5.6 35 1.7 76 76 undefined N/A 29.52 1000 N/A 0.02 0.51
4:54 pm 16:54 undefined 42 5.6 34 1.1 73 73 undefined N/A 29.52 1000 N/A 0.00 0.00
5:54 pm 17:54 undefined 42 5.6 33 0.6 71 71 undefined N/A 29.52 1000 N/A 0.00 0.00
6:54 pm 18:54 undefined 42 5.6 32 0 68 68 undefined N/A 29.52 1000 N/A 0.00 0.00
7:54 pm 19:54 undefined 42 5.6 32 0 68 68 undefined N/A 29.51 999 N/A 0.00 0.00
8:54 pm 20:54 undefined 42 5.6 32 0 68 68 undefined N/A 29.49 999 N/A 0.00 0.00
9:54 pm 21:54 undefined 41 5 32 0 70 70 undefined N/A 29.47 998 N/A 0.00 0.00
10:54 pm 22:54 undefined 40 4.4 33 0.6 77 77 undefined N/A 29.47 998 N/A 0.00 0.00
11:54 pm 23:54 undefined 41 5 33 0.6 73 73 undefined N/A 29.46 998 N/A 0.00 0.00

Powered by AerisWeather